Miscellaneous Local Product
Issued by NWS Hastings, NE

Home | Current Version | Previous Version | Graphics & Text | Print | Product List | Glossary On
Versions: 1 2 3 4 5 6 7 8 9 10 11 12 13 14 15 16 17 18 19 20 21 22 23 24 25 26 27 28 29 30 31 32 33 34 35 36 37 38 39 40 41 42 43 44 45 46 47 48 49 50
000
AXUS43 KGID 090202
MISGRI

GID CWA HOURLY WEATHER ROUNDUP
NATIONAL WEATHER SERVICE HASTINGS NE
800 PM CST THU DEC 08 2016

NOTE: "FAIR" INDICATES FEW OR NO CLOUDS BELOW 12,000 FEET WITH NO
SIGNIFICANT WEATHER AND/OR OBSTRUCTIONS TO VISIBILITY.

...SOUTH CENTRAL NEBRASKA...

CITY           SKY/WX    TMP DP  RH WIND       PRES   REMARKS
GRAND ISLAND   CLEAR     11   3  70 NW3       30.61R
HASTINGS       CLEAR     10   2  69 CALM      30.61S
KEARNEY        CLEAR     14   0  52 CALM      30.60R
ORD            CLEAR      4  -4  69 NW6       30.59R WCI  -7
YORK             N/A     12   5  73 CALM      30.62S
AURORA         CLEAR      9   1  70 CALM      30.61S
LEXINGTON      CLEAR     10   1  68 SW3       30.57F
HOLDREGE       CLEAR     11   2  68 W3        30.58S
HEBRON         CLEAR     13   6  76 CALM      30.64S

...NEBRASKA PANHANDLE...

CITY           SKY/WX    TMP DP  RH WIND       PRES   REMARKS
CHADRON        CLOUDY     0  -7  72 N5        30.43F WCI -10
ALLIANCE       CLOUDY     0  -5  79 SE8       30.38S WCI -14
SCOTTSBLUFF    CLOUDY     4  -4  69 E7        30.37S WCI  -8
SIDNEY         CLOUDY    -1  -6  79 S8        30.37S WCI -15

...WESTERN AND NORTH CENTRAL NEBRASKA...

CITY           SKY/WX    TMP DP  RH WIND       PRES   REMARKS
VALENTINE      CLEAR      3  -5  69 N5        30.54F WCI  -6
AINSWORTH      CLEAR      4  -3  73 CALM      30.55F
ONEILL         CLEAR      6   0  75 NW6       30.60S WCI  -4
BROKEN BOW     CLEAR      5  -3  69 N5        30.55S WCI  -4
IMPERIAL       CLOUDY     3  -3  76 SE7       30.49F WCI  -9
NORTH PLATTE   CLEAR      4  -2  76 E3        30.53F
MCCOOK         CLOUDY     6   0  76 SW3       30.56F

...EASTERN NEBRASKA...

CITY           SKY/WX    TMP DP  RH WIND       PRES   REMARKS
NORFOLK        CLEAR      9   1  70 W7        30.62R WCI  -2
SO SIOUX CITY  CLEAR     16   7  67 NW10      30.64R WCI   4
TEKAMAH        CLEAR     16   6  65 NW10      30.64R WCI   4
COLUMBUS       CLEAR     12   1  62 NW5       30.62S WCI   4
ALBION         CLEAR     10   1  68 NW7       30.61S WCI  -1
OMAHA EPPLEY   CLEAR     16   7  67 NW8       30.64S WCI   5
OFFUTT AFB     CLEAR     18   8  64 NW7       30.64R WCI   9
MILLARD        CLEAR     22  10  60 NW7       30.64S WCI  13
LINCOLN        CLEAR     18   6  59 NW5       30.66R WCI  11
NEBRASKA CITY  CLEAR     17   6  60 NW8       30.63S WCI   7
BEATRICE       CLEAR     12   6  76 NW5       30.63S WCI   4
FALLS CITY     CLEAR     15   8  73 NW6       30.64R WCI   6

...NORTHERN KANSAS...

CITY           SKY/WX    TMP DP  RH WIND       PRES   REMARKS
GOODLAND       CLOUDY     2  -4  76 S8        30.46F WCI -12
HILL CITY      CLOUDY     7   0  73 NW3       30.62R
NORTON         CLEAR      9   0  66 W3        30.58F
PHILLIPSBURG   CLEAR      9   3  78 W7        30.64S WCI  -3
SMITH CENTER   CLEAR     10   5  79 CALM      30.65R
BELOIT         CLEAR     12   7  79 W3        30.65S
HAYS           CLEAR     13   5  70 NE7       30.63R WCI   3
RUSSELL        CLEAR     16   5  62 N6        30.63R WCI   7
CONCORDIA      CLEAR     18   8  65 N3        30.64S
SALINA         CLEAR     17   9  70 W7        30.67R WCI   8
TOPEKA         CLEAR     21  10  62 NW3       30.66S



USA.gov is the U.S. government's official web portal to all federal, state and local government web resources and services.